Date,TemperatureHighF,TemperatureAvgF,TemperatureLowF,DewpointHighF,DewpointAvgF,DewpointLowF,HumidityHigh,HumidityAvg,HumidityLow,PressureMaxIn,PressureMinIn,WindSpeedMaxMPH,WindSpeedAvgMPH,GustSpeedMaxMPH,PrecipitationSumIn
2013-2-1,73.0,62.3,53.0,57.0,49.8,40.0,77,64,54,30.27,30.16,3,0,11,0.00
2013-2-2,74.0,64.0,55.0,55.0,50.0,38.0,77,61,47,30.27,30.13,3,0,9,0.00
2013-2-3,75.0,63.6,56.0,54.0,51.6,42.0,88,68,33,30.17,30.08,2,0,7,0.00
2013-2-4,74.0,63.3,50.0,56.0,49.2,41.0,82,62,37,30.15,30.03,3,0,9,0.00
2013-2-5,77.0,65.6,56.0,65.0,59.1,53.0,91,80,62,30.07,30.01,2,0,10,0.00
2013-2-6,78.0,70.8,62.0,68.0,63.9,61.0,96,80,64,30.11,30.03,2,0,10,0.00
2013-2-7,79.0,74.5,70.0,70.0,66.2,64.0,81,75,69,30.09,29.94,3,1,10,0.00
2013-2-8,83.0,75.9,70.0,71.0,67.2,61.0,92,75,55,30.03,29.91,7,2,13,0.00
2013-2-9,79.0,72.8,68.0,68.0,64.4,61.0,92,75,64,30.18,30.03,6,2,14,0.00
2013-2-10,74.0,71.4,70.0,65.0,62.7,61.0,81,74,70,30.27,30.16,6,2,16,0.00
2013-2-11,74.0,72.6,71.0,67.0,64.9,62.0,81,77,72,30.20,30.11,3,1,12,0.00
2013-2-12,75.0,73.8,72.0,71.0,69.0,66.0,90,85,78,30.13,29.98,4,1,14,0.00
2013-2-13,81.0,75.7,70.0,75.0,71.1,68.0,96,86,77,30.02,29.90,7,2,21,0.00
2013-2-14,77.0,70.3,63.0,72.0,68.1,62.0,97,93,83,30.01,29.86,7,0,18,1.82
2013-2-15,66.0,64.9,63.0,65.0,63.9,62.0,98,97,96,30.00,29.96,1,0,7,1.85
2013-2-16,73.0,67.7,63.0,64.0,59.7,50.0,97,78,49,29.95,29.89,9,3,23,0.04
2013-2-17,53.0,53.0,53.0,43.0,41.8,40.0,69,66,62,30.09,30.09,2,1,9,0.01
2013-2-18,67.0,66.9,66.0,57.0,55.5,53.0,71,67,61,30.24,30.23,4,2,10,0.00
2013-2-26,82.0,79.4,77.0,75.0,73.1,71.0,86,81,75,29.90,29.87,7,4,21,0.00
2013-2-27,77.0,70.2,63.0,74.0,66.0,62.0,97,87,65,29.97,29.87,6,1,11,0.84
2013-2-28,70.0,64.0,59.0,64.0,53.9,46.0,97,71,43,30.01,29.91,4,0,9,0.39